TimeEST,TemperatureF,Dew PointF,Humidity,Sea Level PressureIn,VisibilityMPH,Wind Direction,Wind SpeedMPH,Gust SpeedMPH,PrecipitationIn,Events,Conditions,WindDirDegrees,DateUTC
12:02 AM,51.1,48.9,92,29.30,5.0,SW,24.2,35.7,0.00,Rain,Light Rain,230,2014-01-12 05:02:00
12:22 AM,50.0,46.9,89,29.29,10.0,WSW,18.4,32.2,0.01,Rain,Light Rain,240,2014-01-12 05:22:00
12:54 AM,50.0,48.0,93,29.31,10.0,SW,16.1,28.8,0.01,,Overcast,230,2014-01-12 05:54:00
1:02 AM,50.0,48.0,93,29.31,10.0,SW,13.8,-,N/A,,Overcast,230,2014-01-12 06:02:00
1:12 AM,50.0,48.0,93,29.31,10.0,WSW,17.3,25.3,N/A,,Overcast,240,2014-01-12 06:12:00
1:46 AM,46.9,42.1,83,29.34,10.0,WNW,21.9,34.5,0.00,Rain,Light Rain,300,2014-01-12 06:46:00
1:52 AM,44.6,41.0,87,29.34,8.0,WNW,18.4,29.9,0.00,Rain,Light Rain,290,2014-01-12 06:52:00
1:54 AM,44.1,41.0,89,29.36,8.0,West,16.1,29.9,0.00,Rain,Light Rain,280,2014-01-12 06:54:00
2:01 AM,44.1,41.0,89,29.34,8.0,WNW,15.0,27.6,0.00,Rain,Light Rain,290,2014-01-12 07:01:00
2:08 AM,44.1,41.0,89,29.35,7.0,West,15.0,-,0.01,Rain,Light Rain,280,2014-01-12 07:08:00
2:18 AM,43.0,41.0,93,29.35,6.0,WNW,12.7,-,0.03,Rain,Rain,290,2014-01-12 07:18:00
2:38 AM,43.0,39.9,89,29.36,10.0,WNW,18.4,24.2,0.03,Rain,Light Rain,290,2014-01-12 07:38:00
2:54 AM,42.1,39.9,92,29.37,10.0,West,13.8,-,0.03,Rain,Light Rain,280,2014-01-12 07:54:00
3:54 AM,41.0,36.0,82,29.37,10.0,West,17.3,25.3,0.00,,Mostly Cloudy,280,2014-01-12 08:54:00
4:54 AM,39.9,33.1,77,29.39,10.0,West,19.6,26.5,N/A,,Clear,280,2014-01-12 09:54:00
5:54 AM,39.0,30.9,73,29.40,10.0,West,24.2,32.2,N/A,,Clear,280,2014-01-12 10:54:00
6:54 AM,37.0,28.9,73,29.42,10.0,WNW,27.6,41.4,N/A,,Clear,290,2014-01-12 11:54:00
7:54 AM,36.0,27.0,70,29.47,10.0,WNW,25.3,38.0,N/A,,Clear,290,2014-01-12 12:54:00
8:54 AM,37.0,27.0,67,29.51,10.0,West,27.6,41.4,N/A,,Clear,280,2014-01-12 13:54:00
9:54 AM,37.9,27.0,65,29.55,10.0,West,25.3,39.1,N/A,,Partly Cloudy,280,2014-01-12 14:54:00
10:54 AM,39.9,26.1,58,29.57,10.0,West,23.0,32.2,N/A,,Partly Cloudy,280,2014-01-12 15:54:00
11:54 AM,39.9,27.0,60,29.59,10.0,West,17.3,29.9,N/A,,Partly Cloudy,280,2014-01-12 16:54:00
12:54 PM,39.0,27.0,62,29.62,10.0,West,16.1,36.8,N/A,,Mostly Cloudy,260,2014-01-12 17:54:00
1:54 PM,39.0,26.1,60,29.65,10.0,West,19.6,31.1,N/A,,Mostly Cloudy,280,2014-01-12 18:54:00
2:54 PM,37.9,26.1,62,29.70,10.0,West,17.3,25.3,N/A,,Overcast,280,2014-01-12 19:54:00
3:54 PM,37.0,24.1,59,29.75,10.0,West,17.3,33.4,N/A,,Overcast,280,2014-01-12 20:54:00
4:54 PM,36.0,21.9,57,29.81,10.0,WNW,29.9,41.4,N/A,,Overcast,290,2014-01-12 21:54:00
5:54 PM,36.0,23.0,59,29.85,10.0,West,12.7,21.9,N/A,,Overcast,280,2014-01-12 22:54:00
6:54 PM,35.1,21.9,59,29.88,10.0,West,13.8,23.0,N/A,,Overcast,280,2014-01-12 23:54:00
7:54 PM,35.1,21.9,59,29.91,10.0,West,11.5,-,N/A,,Overcast,280,2014-01-13 00:54:00
8:54 PM,33.1,21.9,64,29.94,10.0,WSW,12.7,-,N/A,,Partly Cloudy,250,2014-01-13 01:54:00
9:54 PM,32.0,21.9,66,29.94,10.0,West,13.8,-,N/A,,Clear,260,2014-01-13 02:54:00
10:54 PM,32.0,21.9,66,29.95,10.0,West,13.8,-,N/A,,Clear,270,2014-01-13 03:54:00
11:54 PM,32.0,21.9,66,29.96,10.0,West,20.7,27.6,N/A,,Clear,270,2014-01-13 04:54:00